カタログに戻る

CZ-6A DEB

運用中PO
NORAD 61826·DEBRIS·🇨🇳 China

打ち上げ Aug 6, 2024 から Taiyuan Satellite Launch Center

Loading…

次のパス (今後24時間)

TLE

最新Source: Space-Track

元期: Sep 14, 2026, 07:12 UTC

1 61826U 24140ACS 26257.30024336  .00000639  00000-0  24360-3 0  9993
2 61826  89.0384 267.2822 0019808 154.9708 205.2453 14.29565406104644

AllMySatでCZ-6A DEBをリアルタイム追跡

Download on the App Store